This is the latest recevied weather packets stored in our database for station/object KC7YCE. If no packets are shown the sender has not sent any weather packets the latest 1 day(s).
| Time | Temp. | Humidity | Pressure | Rain* | Wind** | Luminosity | Snow |
|---|---|---|---|---|---|---|---|
| 1778009482 | 1.67° C | 93% | 1016.4 hPa | 0 mm | 0 m/s | - | - |
| 1778008883 | 1.67° C | 93% | 1016.4 hPa | 0 mm | 0 m/s | - | - |
| 1778007682 | 1.11° C | 94% | 1016.6 hPa | 0 mm | 0 m/s | - | - |
| 1778007082 | 0.56° C | 94% | 1016.6 hPa | 0 mm | 0 m/s | - | - |
| 1778005852 | 0.56° C | 94% | 1016.8 hPa | 0 mm | 0 m/s | - | - |
| 1778005252 | 0.56° C | 94% | 1016.9 hPa | 0 mm | 0 m/s | - | - |
| 1778004653 | 0.56° C | 94% | 1016.9 hPa | 0 mm | 0 m/s | - | - |
| 1778004053 | 0.56° C | 94% | 1016.8 hPa | 0 mm | 0 m/s | - | - |
| 1778003422 | 0° C | 94% | 1016.7 hPa | 0 mm | 0 m/s | - | - |
| 1778002822 | 0° C | 94% | 1016.6 hPa | 0 mm | 0 m/s | - | - |
| 1778001622 | 0.56° C | 94% | 1016.5 hPa | 0 mm | 0 m/s | - | - |
| 1778001021 | 0.56° C | 94% | 1016.4 hPa | 0 mm | 0 m/s | - | - |
| 1777999821 | 0.56° C | 93% | 1016.2 hPa | 0 mm | 0 m/s | - | - |
| 1777999221 | 0.56° C | 93% | 1016.1 hPa | 0 mm | 0 m/s | - | - |
| 1777998021 | 1.67° C | 92% | 1015.9 hPa | 0 mm | 0 m/s | - | - |
| 1777997421 | 2.22° C | 92% | 1015.8 hPa | 0 mm | 0 m/s | - | - |
| 1777996822 | 2.78° C | 93% | 1015.8 hPa | 0 mm | 0 m/s | - | - |
| 1777996221 | 2.78° C | 93% | 1015.7 hPa | 0 mm | 0 m/s | - | - |
| 1777995021 | 2.22° C | 94% | 1015.8 hPa | 0 mm | 0 m/s | - | - |
| 1777994423 | 2.22° C | 94% | 1015.8 hPa | 0 mm | 0 m/s | - | - |
| 1777993221 | 2.22° C | 94% | 1015.9 hPa | 0 mm | 0 m/s | - | - |
| 1777992620 | 1.67° C | 94% | 1015.9 hPa | 0 mm | 0 m/s | - | - |
| 1777992020 | 1.67° C | 94% | 1016 hPa | 0 mm | 0 m/s | - | - |
| 1777991421 | 1.11° C | 94% | 1016 hPa | 0 mm | 0 m/s | - | - |
| 1777990820 | 1.11° C | 93% | 1016 hPa | 0 mm | 0 m/s | - | - |
* Rain latest hour (hover to see other rain measurements)
** Current wind speed in m/s (hover to see current wind gust speed)